Preview of NWS' New Version of Forecast
This preview is not operational and should not be used for support decisions.

Regional Weather Roundup (RWR)

Issued by National Weather Service (NWS)

                            
000
ASCA42 TJSJ 191510
RWRPR 
PUERTO RICO/U.S. VIRGIN ISLANDS HOURLY WEATHER ROUNDUP
NATIONAL WEATHER SERVICE SAN JUAN PR
1100 AM AST TUE FEB 19 2019

PRZ001>002-007>008-010-191600-
PUERTO RICO
  
CITY           SKY/WX    TMP DP  RH WIND       PRES   REMARKS
SAN JUAN LMM   MOSUNNY   81  70  69 E14       30.18S                  
AGUADILLA      MOSUNNY   81 N/A N/A E17G25    30.19S                  
CEIBA          PTSUNNY   79  70  73 E10       30.19S                  
$$

VIZ001>002-191600-
U.S. VIRGIN ISLANDS
  
CITY           SKY/WX    TMP DP  RH WIND       PRES   REMARKS
CHARLOTTE AMA  CLOUDY    75  73  94 E6        30.17S                  
CHRISTIANSTED  MOSUNNY   84  66  54 E22       30.16F                  
$$

HOURLY WEATHER ROUNDUP FOR THE NEWS MEDIA
  
CITY           SKY/WX    TMP DP  RH WIND       PRES   REMARKS
ORLANDO        FAIR      75  67  76 E8        30.24S                  
NEW YORK       PTSUNNY   28  11  48 NW14      30.58R WCI  17          
NEWARK         PTSUNNY   29   7  39 NW14G21   30.58S WCI  18          
CHICAGO        CLOUDY    19  13  77 CALM      30.63S                  
HARTFORD       FAIR      24   8  50 VRB7G17   30.46R WCI  16          
BOSTON         FAIR      23   4  44 NW18G29   30.47R WCI   9          
DALLAS         CLOUDY    37  32  82 NE13      30.15F WCI  29          
PHILADELPHIA   PTSUNNY   30  11  45 NW10G20   30.62S WCI  21          
LOS ANGELES    PTCLDY    44  25  47 NE5       30.12R                  
WASHINGTON DC  FAIR      32  11  41 N10       30.64S WCI  24